Preview of NWS' New Version of Forecast
This preview is not operational and should not be used for support decisions.

Regional Weather Roundup (RWR)

Issued by National Weather Service (NWS)

                            
000
ASCA42 TJSJ 172110
RWRPR 
PUERTO RICO/U.S. VIRGIN ISLANDS HOURLY WEATHER ROUNDUP
NATIONAL WEATHER SERVICE SAN JUAN PR
500 PM AST SUN MAR 17 2019

PRZ001>002-007>008-010-172200-
PUERTO RICO
  
CITY           SKY/WX    TMP DP  RH WIND       PRES   REMARKS
SAN JUAN LMM   MOSUNNY   82  70  65 E18       29.98R                  
AGUADILLA      CLOUDY    79  68  69 NE8       29.99S                  
$$

VIZ001>002-172200-
U.S. VIRGIN ISLANDS
  
CITY           SKY/WX    TMP DP  RH WIND       PRES   REMARKS
CHARLOTTE AMA  MOSUNNY   81  70  69 SE9       29.99R                  
CHRISTIANSTED  MOSUNNY   82  66  57 SE9       29.99R                  
$$

HOURLY WEATHER ROUNDUP FOR THE NEWS MEDIA
  
CITY           SKY/WX    TMP DP  RH WIND       PRES   REMARKS
ORLANDO        CLOUDY    62  55  77 N13       30.07F                  
NEW YORK       FAIR      45  15  30 NW10G23   30.13F                  
NEWARK         FAIR      46  10  23 W17G24    30.12F                  
CHICAGO        FAIR      42  20  41 NW12G21   30.21S                  
HARTFORD       FAIR      41  14  33 W14G22    30.07S                  
BOSTON         FAIR      41  10  28 W10       30.06F                  
DALLAS         MOSUNNY   65  26  23 CALM      30.26F                  
PHILADELPHIA   FAIR      46  14  27 W15G24    30.16S                  
LOS ANGELES    MOSUNNY   77  35  21 W14       29.97F                  
WASHINGTON DC  FAIR      50  14  23 VRB7      30.14F